Home > Weather > Chiclayo > Past weeks

Flag for Peru Past Weather in Chiclayo, Lambayeque, Peru — Yesterday and Last 2 Weeks

Now
64 °F

Clear.


Feels Like: 64 °F
Forecast: 64 / 72 °F
Wind: 8 mph from Southwest

Location: Chiclayo Airport

Current Time: May 29, 2016 at 2:56:48 AM

Latest Report: May 29, 2016 at 2:00 AM


Visibility: 10 mi

Pressure: 29.98 "Hg

Humidity: 100%

Dew Point: 64 °F

Location of ChiclayoLocation

Past Weather in Chiclayo — Graph

°F

Chiclayo Temperature Yesterday

Maximum temperature yesterday: 79 °F (at 12:00 PM)
Minimum temperature yesterday: 64 °F (at 1:00 AM)
Average temperature yesterday: 70 °F

High & Low Weather Summary for the Past Weeks

 TemperatureHumidityPressure
High81 °F (May 19, 12:00 PM)100% (May 14, 5:00 AM)30.01 "Hg (May 14, 5:00 AM)
Low64 °F (May 21, 2:00 AM)58% (May 18, 2:00 PM)29.80 "Hg (May 15, 3:00 PM)
Average70 °F82%29.90 "Hg
* Reported May 14 1:00 AM — May 29 1:00 AM, Chiclayo, Weather by CustomWeather, © 2016

Note: Actual official high and low records may vary slightly from our data, if they occured in-between our weather recording intervals... More about our weather records

Advertising

Chiclayo Weather History for the Previous 24 Hours

Scroll right to see more
 ConditionsComfort  
Time TempWeatherWind HumidityBarometerVisibility
1:00 AM
Sun, May 29
64 °FClear.7 mph100%29.98 "Hg10 mi
12:00 AM66 °FClear.9 mph88%29.98 "Hg10 mi
11:00 PM
Sat, May 28
66 °FClear.9 mph88%29.98 "Hg10 mi
10:00 PM68 °FClear.8 mph88%29.98 "Hg10 mi
9:00 PM70 °FClear.8 mph78%29.95 "Hg10 mi
8:00 PM70 °FClear.13 mph78%29.95 "Hg10 mi
7:00 PM70 °FClear.15 mph78%29.92 "Hg10 mi
6:00 PM70 °FSunny.18 mph83%29.92 "Hg10 mi
5:00 PM72 °FSunny.22 mph78%29.89 "Hg10 mi
4:00 PM75 °FSunny.21 mph69%29.89 "Hg10 mi
3:00 PM75 °FSunny.20 mph69%29.89 "Hg10 mi
2:00 PM77 °FSunny.18 mph65%29.92 "Hg10 mi
1:00 PM79 °FSunny.15 mph61%29.92 "Hg10 mi
12:00 PM79 °FSunny.13 mph61%29.95 "Hg10 mi
11:00 AM77 °FPassing clouds.12 mph65%29.95 "HgN/A
10:00 AM75 °FPassing clouds.9 mph69%29.98 "HgN/A
9:00 AM70 °FSunny.6 mph83%29.98 "Hg10 mi
8:00 AM66 °FSunny.6 mph88%29.98 "Hg10 mi
7:00 AM64 °FSunny.1 mph100%29.95 "Hg10 mi
6:00 AM64 °FClear.1 mph94%29.95 "Hg10 mi
5:00 AM64 °FClear.No wind94%29.92 "Hg10 mi
4:00 AM64 °FClear.6 mph94%29.92 "Hg10 mi
3:00 AM64 °FClear.8 mph100%29.92 "Hg10 mi
2:00 AM64 °FClear.10 mph100%29.95 "Hg10 mi
Weather by CustomWeather, © 2016

See weather overviewHow to use our weather pages